Regional Weather Roundup
Issued by NWS Albany, NY

Home | Current Version | Previous Version | Text Only | Print | Product List | Glossary On
Versions: 1 2 3 4 5 6 7 8 9 10 11 12 13 14 15 16 17 18 19 20 21 22 23 24 25 26 27 28 29 30 31 32 33 34 35 36 37 38 39 40 41 42 43 44 45 46 47 48 49 50
000
ASUS41 KALY 231710
RWRALY

NEW YORK STATE HOURLY WEATHER ROUNDUP
NATIONAL WEATHER SERVICE ALBANY NY
100 PM EDT FRI JUN 23 2017

NOTE: "FAIR" INDICATES FEW OR NO CLOUDS BELOW 12,000 FEET WITH NO
SIGNIFICANT WEATHER AND/OR NO OBSTRUCTIONS TO VISIBILITY.

NYZ032-033-038>043-046>054-057>066-NYZ062>081-082-084-231800-
EAST


CITY           SKY/WX    TMP DP  RH WIND       PRES   REMARKS
ALBANY         PTSUNNY   85  68  56 SE13G22   29.65F
GLENS FALLS    NOT AVBL
POUGHKEEPSIE   CLOUDY    84  71  65 VRB6      29.68F
NEWBURGH       PTSUNNY   82  72  69 SW12      29.72F
MONTGOMERY     PTSUNNY   84  69  60 SW15      29.69F
WHITE PLAINS   MOSUNNY   81  73  78 S7        29.76F
ISLIP          CLOUDY    79  73  82 SW15      29.75F
NEW YORK CITY  PTSUNNY   84  72  67 SW16G22   29.72F
CENTRAL PARK   PTSUNNY   81  71  71 VRB7G18   29.76F
$$

NYZ005>009-017-018-044>046-055-056-231800-
CENTRAL


CITY           SKY/WX    TMP DP  RH WIND       PRES   REMARKS
FULTON         CLOUDY    79  67  66 S14G22    29.60F
SYRACUSE       LGT RAIN  75  70  84 SW14      29.62F
ROME           PTSUNNY   79  69  71 VRB3      29.64F
ELMIRA         LGT RAIN  75  70  83 S8        29.65F
BINGHAMTON     CLOUDY    70  66  88 S9        29.71F
MONTICELLO     PTSUNNY   79  68  69 S13       29.75F
$$

NYZ026>034-041>043-087-231800-
NORTH


CITY           SKY/WX    TMP DP  RH WIND       PRES   REMARKS
WATERTOWN      CLOUDY    72  70  93 E5        29.60F
FORT DRUM      NOT AVBL
OGDENSBURG     LGT RAIN  71  69  92 SW8       29.60F
MASSENA        LGT RAIN  72  70  93 SW9       29.61F
SARANAC LAKE   CLOUDY    66  66 100 SW5       29.67F
PLATTSBURGH    HVY RAIN  69  67  93 CALM      29.63F FOG
$$

NYZ001>004-010>016-019>021-085-231800-
WEST


CITY           SKY/WX    TMP DP  RH WIND       PRES   REMARKS
NIAGARA FALLS  HVY RAIN  73  68  84 SW8       29.60S VSB 3/4
BUFFALO        LGT RAIN  73  69  87 S10       29.61S FOG
DUNKIRK        LGT RAIN  72  69  90 SW10      29.61F
JAMESTOWN      CLOUDY    66  64  94 S10       29.68F
WELLSVILLE     LGT RAIN  71  66  84 SW12      29.72F
ROCHESTER      CLOUDY    79  68  69 W8        29.60F
PENN YAN       PTSUNNY   77  65  66 S15       29.63F
$$

             KEY
       WCI = WIND CHILL INDEX
       VSB = VISIBILITY
       HX  = HEAT INDEX
$$



USA.gov is the U.S. government's official web portal to all federal, state and local government web resources and services.